User: anonymous   Login
Location: Sevilla
(37.3933°N, 5.9839°W)
Time: 23:16:33
(UTC+02:00)
Language:

Vanguard 2 Rocket - Orbit

View from above orbital plane
View from above orbital plane
View from above satellite
View from above satellite

Ground track
Ground track

The orbit data is extracted from the following two-line orbital elements,

1 00012U 59001B   24176.45273673  .00001729  00000-0  99963-3 0  9993
2 00012  32.9077 249.1908 1654988 242.4180  99.8846 11.46546941448267
Epoch (UTC): 24 June 2024 10:51:56
Eccentricity: 0.1654988
inclination: 32.9077°
perigee height: 554 km
apogee height: 3304 km
right ascension of ascending node: 249.1908°
argument of perigee: 242.4180°
revolutions per day: 11.46546941
mean anomaly at epoch: 99.8846°
orbit number at epoch: 44826

The dashed part of the orbit path shows where the satellite is in the earth's shadow,  

DLR